• In Lithuania
  • List of Countries
  • For 7 days
  • Water Temperature
  • Satellite Maps
  • Weather Map
  • Weather Widgets
  • user-avatar
    Login

    Hourly Weather Canberra

    Today, 21 July, Friday

    Time Temperature Precipitation Wind Pressure Humidity
    00:00 +1°C° 0 mm 1 mps 709 mmHg 88%
    01:00 -1°C° 0 mm 2 mps 710 mmHg 86%
    02:00 -1°C° 0 mm 2 mps 710 mmHg 86%
    03:00 -1°C° 0 mm 2 mps 710 mmHg 86%
    04:00 -1°C° 0 mm 2 mps 710 mmHg 86%
    05:00 -1°C° 0 mm 2 mps 711 mmHg 87%
    06:00 -1°C° 0 mm 2 mps 711 mmHg 89%
    07:00 +1°C° 0 mm 1 mps 711 mmHg 90%
    08:00 +2°C° 0 mm 2 mps 712 mmHg 80%
    09:00 +5°C° 0 mm 2 mps 712 mmHg 69%
    10:00 +8°C° 0 mm 2 mps 713 mmHg 59%
    11:00 +9°C° 0 mm 2 mps 713 mmHg 53%
    12:00 +12°C° 0 mm 2 mps 713 mmHg 46%
    13:00 +13°C° 0 mm 2 mps 713 mmHg 40%
    14:00 +13°C° 0 mm 1 mps 713 mmHg 41%
    15:00 +12°C° 0 mm 1 mps 712 mmHg 43%
    16:00 +12°C° 0 mm 1 mps 712 mmHg 45%
    17:00 +9°C° 0 mm 1 mps 712 mmHg 55%
    18:00 +7°C° 0 mm 1 mps 713 mmHg 64%
    19:00 +4°C° 0 mm 1 mps 713 mmHg 74%
    20:00 +4°C° 0 mm 1 mps 713 mmHg 76%
    21:00 +3°C° 0 mm 1 mps 713 mmHg 77%
    22:00 +2°C° 0 mm 1 mps 713 mmHg 79%
    23:00 +2°C° 0 mm 1 mps 713 mmHg 80%

    Tomorrow, 22 July, Saturday

    Time Temperature Precipitation Wind Pressure Humidity
    00:00 +2°C° 0 mm 1 mps 713 mmHg 81%
    01:00 +1°C° 0 mm 1 mps 713 mmHg 81%
    02:00 +1°C° 0 mm 1 mps 713 mmHg 82%
    03:00 +1°C° 0 mm 1 mps 713 mmHg 82%
    04:00 +1°C° 0 mm 1 mps 712 mmHg 82%
    05:00 0°C° 0 mm 1 mps 712 mmHg 81%
    06:00 0°C° 0 mm 1 mps 712 mmHg 80%
    07:00 0°C° 0 mm 1 mps 712 mmHg 79%
    08:00 +2°C° 0 mm 2 mps 713 mmHg 67%
    09:00 +5°C° 0 mm 2 mps 713 mmHg 54%
    10:00 +8°C° 0 mm 3 mps 713 mmHg 42%
    11:00 +9°C° 0 mm 3 mps 713 mmHg 40%
    12:00 +11°C° 0 mm 4 mps 712 mmHg 37%
    13:00 +12°C° 0 mm 4 mps 711 mmHg 35%
    14:00 +11°C° 0 mm 4 mps 711 mmHg 39%
    15:00 +11°C° 0 mm 4 mps 711 mmHg 42%
    16:00 +10°C° 0 mm 4 mps 710 mmHg 46%
    17:00 +7°C° 0 mm 4 mps 710 mmHg 55%
    18:00 +5°C° 0 mm 3 mps 710 mmHg 64%
    19:00 +3°C° 0 mm 3 mps 711 mmHg 73%
    20:00 +3°C° 0 mm 3 mps 711 mmHg 73%
    21:00 +4°C° 0 mm 2 mps 711 mmHg 72%
    22:00 +3°C° 0 mm 2 mps 711 mmHg 72%
    23:00 +3°C° 0 mm 2 mps 710 mmHg 71%

    Day after tomorrow, 23 July, Sunday

    Time Temperature Precipitation Wind Pressure Humidity
    00:00 +3°C° 0 mm 2 mps 710 mmHg 70%
    01:00 +3°C° 0 mm 2 mps 710 mmHg 69%
    02:00 +3°C° 0 mm 2 mps 710 mmHg 68%
    03:00 +3°C° 0 mm 2 mps 709 mmHg 67%
    04:00 +2°C° 0 mm 3 mps 709 mmHg 67%
    05:00 +2°C° 0 mm 3 mps 709 mmHg 65%
    06:00 +2°C° 0 mm 3 mps 709 mmHg 64%
    07:00 +2°C° 0 mm 3 mps 709 mmHg 63%
    08:00 +4°C° 0 mm 4 mps 709 mmHg 57%
    09:00 +6°C° 0 mm 5 mps 709 mmHg 50%
    10:00 +9°C° 0 mm 6 mps 709 mmHg 44%
    11:00 +10°C° 0 mm 6 mps 709 mmHg 44%
    12:00 +11°C° 0 mm 7 mps 708 mmHg 44%
    13:00 +12°C° 0 mm 8 mps 707 mmHg 43%
    14:00 +12°C° 0 mm 7 mps 707 mmHg 46%
    15:00 +11°C° 0 mm 7 mps 707 mmHg 49%
    16:00 +11°C° 0 mm 7 mps 707 mmHg 52%
    17:00 +10°C° 0 mm 6 mps 707 mmHg 57%
    18:00 +8°C° 0 mm 5 mps 707 mmHg 62%
    19:00 +7°C° 0 mm 4 mps 707 mmHg 67%
    20:00 +7°C° 0.1 mm 4 mps 708 mmHg 70%
    21:00 +7°C° 0.1 mm 4 mps 708 mmHg 74%
    22:00 +7°C° 0.1 mm 4 mps 708 mmHg 77%
    23:00 +7°C° 0.1 mm 4 mps 708 mmHg 80%

    24 July, Monday

    Time Temperature Precipitation Wind Pressure Humidity
    00:00 +6°C° 0.1 mm 4 mps 708 mmHg 83%
    01:00 +6°C° 0.1 mm 4 mps 708 mmHg 86%
    02:00 +6°C° 0 mm 4 mps 708 mmHg 86%
    03:00 +6°C° 0 mm 4 mps 708 mmHg 86%
    04:00 +6°C° 0 mm 4 mps 708 mmHg 87%
    05:00 +5°C° 0 mm 4 mps 709 mmHg 86%
    06:00 +5°C° 0 mm 4 mps 709 mmHg 85%
    07:00 +5°C° 0 mm 4 mps 710 mmHg 85%
    08:00 +6°C° 0 mm 4 mps 710 mmHg 78%
    09:00 +8°C° 0 mm 4 mps 711 mmHg 70%
    10:00 +9°C° 0 mm 5 mps 711 mmHg 63%
    11:00 +10°C° 0 mm 5 mps 711 mmHg 60%
    12:00 +12°C° 0 mm 5 mps 711 mmHg 58%
    13:00 +12°C° 0 mm 5 mps 711 mmHg 55%
    14:00 +11°C° 0 mm 4 mps 711 mmHg 59%
    15:00 +10°C° 0 mm 4 mps 711 mmHg 64%
    16:00 +8°C° 0 mm 4 mps 711 mmHg 69%
    17:00 +8°C° 0 mm 3 mps 711 mmHg 74%
    18:00 +7°C° 0 mm 3 mps 711 mmHg 80%
    19:00 +5°C° 0 mm 2 mps 712 mmHg 86%
    20:00 +5°C° 0 mm 2 mps 712 mmHg 87%
    21:00 +5°C° 0 mm 2 mps 712 mmHg 89%
    22:00 +4°C° 0 mm 2 mps 712 mmHg 90%
    23:00 +4°C° 0 mm 2 mps 712 mmHg 90%

    25 July, Tuesday

    Time Temperature Precipitation Wind Pressure Humidity
    00:00 +4°C° 0 mm 2 mps 712 mmHg 91%
    01:00 +4°C° 0 mm 2 mps 712 mmHg 92%
    02:00 +4°C° 0 mm 2 mps 711 mmHg 92%
    03:00 +4°C° 0 mm 2 mps 711 mmHg 93%
    04:00 +4°C° 0 mm 2 mps 711 mmHg 93%
    05:00 +4°C° 0 mm 2 mps 711 mmHg 93%
    06:00 +4°C° 0 mm 2 mps 711 mmHg 93%
    07:00 +4°C° 0 mm 2 mps 712 mmHg 93%
    08:00 +6°C° 0 mm 2 mps 712 mmHg 85%
    09:00 +8°C° 0 mm 3 mps 712 mmHg 76%
    10:00 +10°C° 0 mm 4 mps 712 mmHg 68%
    11:00 +11°C° 0 mm 4 mps 711 mmHg 62%
    12:00 +13°C° 0 mm 5 mps 710 mmHg 55%
    13:00 +14°C° 0 mm 6 mps 710 mmHg 49%
    14:00 +14°C° 0 mm 5 mps 709 mmHg 52%
    15:00 +14°C° 0 mm 5 mps 709 mmHg 55%
    16:00 +14°C° 0 mm 5 mps 708 mmHg 59%
    17:00 +13°C° 0 mm 5 mps 708 mmHg 61%
    18:00 +12°C° 0 mm 5 mps 708 mmHg 64%
    19:00 +10°C° 0 mm 4 mps 708 mmHg 67%
    20:00 +9°C° 0 mm 5 mps 708 mmHg 64%
    21:00 +9°C° 0 mm 5 mps 708 mmHg 62%
    22:00 +9°C° 0 mm 5 mps 708 mmHg 59%
    23:00 +9°C° 0 mm 5 mps 708 mmHg 60%

    26 July, Wednesday

    Time Temperature Precipitation Wind Pressure Humidity
    00:00 +9°C° 0 mm 5 mps 708 mmHg 60%
    01:00 +9°C° 0 mm 6 mps 707 mmHg 61%
    02:00 +9°C° 0 mm 5 mps 707 mmHg 65%
    03:00 +8°C° 0 mm 5 mps 707 mmHg 70%
    04:00 +8°C° 0 mm 5 mps 707 mmHg 75%
    05:00 +7°C° 0 mm 5 mps 707 mmHg 78%
    06:00 +7°C° 0 mm 5 mps 708 mmHg 81%
    07:00 +6°C° 0 mm 4 mps 708 mmHg 84%
    08:00 +7°C° 0 mm 5 mps 708 mmHg 78%
    09:00 +8°C° 0 mm 6 mps 709 mmHg 73%
    10:00 +8°C° 0 mm 6 mps 709 mmHg 68%
    11:00 +9°C° 0 mm 6 mps 709 mmHg 65%
    12:00 +9°C° 0 mm 7 mps 708 mmHg 61%
    13:00 +9°C° 0 mm 7 mps 708 mmHg 58%
    14:00 +9°C° 0 mm 7 mps 708 mmHg 59%
    15:00 +8°C° 0 mm 6 mps 708 mmHg 61%
    16:00 +8°C° 0 mm 6 mps 708 mmHg 62%
    17:00 +7°C° 0 mm 5 mps 708 mmHg 67%
    18:00 +6°C° 0 mm 4 mps 709 mmHg 73%
    19:00 +4°C° 0 mm 3 mps 709 mmHg 78%
    20:00 +4°C° 0 mm 3 mps 710 mmHg 81%
    21:00 +4°C° 0 mm 2 mps 710 mmHg 84%
    22:00 +4°C° 0 mm 2 mps 710 mmHg 87%
    23:00 +3°C° 0 mm 2 mps 711 mmHg 89%
    Show more